星链-4120 (STARLINK-4120 )

导读 | 豆包AI

STARLINK-4120是美国太空探索技术公司星链星座的一员,于2022年8月19日发射入轨,属于星链互联网卫星项目。它依托星链组网布局,承担全球卫星互联网通信服务任务,为偏远地区、海洋船舶等提供低时延互联网接入,是美国大规模低轨卫星互联网星座构建中的重要组网卫星。

基本信息
目录编号:
53537
目录名称:
STARLINK-4120
国际标识:
2022-101L
轨道中心:
EARTH
卫星名称:
星链-4120
卫星全名:
星链-4120 (STARLINK-4120 )
卫星状态:
在轨 (已飞行1304 天)
发射日期:
2022-08-19 UTC
国别 :
美国 (US)
星等 :
--
轨道信息
数据来源 国际轨道数据
星历时间: 2026-03-14T13:35:58+0800
1天前
查看轨道信息
半长轴: 6917.873km
偏心率: 0.0001459
轨道倾角: 53.217°
近地点辐角 96.634°
升交点赤经 53.691°
平近点角 263.482°
近地点: 538.726km
远地点: 540.746km
周期: 95.437分钟
每日圈数: 15.088426
详细信息
固有亮度:
5
最大亮度:
2.5
卫星平台:
Starlink v1.5
覆盖范围:
全球
运营商:
太空探索技术公司
运营商所在国:
美国
制造商(研发单位):
太空探索技术公司
制造商所在国:
美国
使用方式:
暂无
卫星简介
星链(Starlink)计划是由太空探索技术公司(SpaceX)提出的一个巨型低轨卫星互联网星座项目,计划在2019年至2024年间在太空搭建由约1.2万颗卫星组成的“星链”网络,其中1584颗将部署在地球上空550千米处的近地轨道,并从2020年开始工作。该卫星仍在工作。
2D轨道图
3D轨道图
轨道高度分析图
轨道倾角分析图
轨道综合分析图
查看轨道综合分析图